Tracking 28794 objects as of 22-Apr-2024
HD Live streaming from Space Station
objects crossing your sky now

YZ-1 R/B

Track YZ-1 R/B now!


NORAD ID: 44544
Int'l Code: 2019-061C
Perigee: 22,035.5 km
Apogee: 22,224.3 km
Inclination: 54.5 °
Period: 798.1 minutes
Semi major axis: 28500 km
RCS: Unknown
Launch date: September 22, 2019
Source: People's Republic of China (PRC)
Launch site: Xichang Space Center, China (XSC)

Note: This is a ROCKET BODY
Your satellite tracking list
Your tracking list is empty




NASA's NSSDC Master Catalog

Two Line Element Set (TLE):
1 44544U 19061C   24112.62804847 -.00000012  00000-0  00000-0 0  9991
2 44544  54.5135 213.2136 0033117 248.6001 111.0562  1.80432706 30190
Source of the keplerian elements: AFSPC